This is the latest recevied weather packets stored in our database for station/object K1BES. If no packets are shown the sender has not sent any weather packets the latest 10 day(s).
| Time | Temp. | Humidity | Pressure | Rain* | Wind** | Luminosity | Snow |
|---|---|---|---|---|---|---|---|
| 1777435396 | 22.78° C | 77% | 1020 hPa | 0 mm | - | 0 W/m² | - |
| 1777435090 | 22.78° C | 76% | 1020 hPa | 0 mm | - | 0 W/m² | - |
| 1777434787 | 23.33° C | 76% | 1020 hPa | 0 mm | - | 0 W/m² | - |
| 1777434485 | 23.33° C | 75% | 1020.2 hPa | 0 mm | - | 0 W/m² | - |
| 1777434184 | 23.33° C | 75% | 1020.3 hPa | 0 mm | - | 0 W/m² | - |
| 1777433880 | 23.89° C | 74% | 1020.1 hPa | 0 mm | - | 0 W/m² | - |
| 1777433577 | 23.89° C | 74% | 1020 hPa | 0 mm | - | 0 W/m² | - |
| 1777433276 | 23.89° C | 73% | 1019.8 hPa | 0 mm | - | 0 W/m² | - |
| 1777432974 | 23.89° C | 73% | 1020 hPa | 0 mm | - | 0 W/m² | - |
| 1777432674 | 23.89° C | 72% | 1020 hPa | 0 mm | - | 0 W/m² | - |
| 1777432371 | 24.44° C | 72% | 1019.9 hPa | 0 mm | - | 0 W/m² | - |
| 1777432071 | 24.44° C | 71% | 1020 hPa | 0 mm | - | 0 W/m² | - |
| 1777431766 | 24.44° C | 71% | 1019.9 hPa | 0 mm | - | 0 W/m² | - |
| 1777431462 | 25° C | 71% | 1019.9 hPa | 0 mm | - | 0 W/m² | - |
| 1777431158 | 25° C | 70% | 1019.9 hPa | 0 mm | - | 0 W/m² | - |
| 1777430853 | 25° C | 70% | 1019.7 hPa | 0 mm | - | 0 W/m² | - |
| 1777430551 | 25° C | 70% | 1019.7 hPa | 0 mm | - | 0 W/m² | - |
| 1777430246 | 25° C | 70% | 1019.8 hPa | 0 mm | - | 0 W/m² | - |
| 1777429940 | 24.44° C | 71% | 1019.7 hPa | 0 mm | - | 0 W/m² | - |
| 1777429639 | 24.44° C | 72% | 1019.6 hPa | 0 mm | - | 0 W/m² | - |
| 1777429335 | 24.44° C | 73% | 1019.7 hPa | 0 mm | - | 0 W/m² | - |
| 1777429029 | 24.44° C | 73% | 1019.7 hPa | 0 mm | - | 0 W/m² | - |
| 1777428726 | 23.89° C | 74% | 1019.6 hPa | 0 mm | - | 0 W/m² | - |
| 1777428422 | 23.89° C | 75% | 1019.8 hPa | 0 mm | - | 0 W/m² | - |
| 1777428118 | 23.89° C | 76% | 1019.6 hPa | 0 mm | - | 0 W/m² | - |
* Rain latest hour (hover to see other rain measurements)
** Current wind speed in m/s (hover to see current wind gust speed)